Flight Track Log - Related Links

Times and Time Zones

All times are in EDT time to prevent confusion due to time zone crossing. See the SWA1969 flight status page for this flight to view local times or setup timezone preferences in your user account.

Time Position Orientation Groundspeed Altitude Reporting Facility
EDT Latitude Longitude Course Direction KTS MPH feet Rate Location/Type
09:08 32.8667 -96.8667 308° West 145 167 2,400  Level Dallas / Fort Worth TRACON
09:09 32.9000 -96.9167 308° West 188 216 4,800 2,600 Climbing Dallas / Fort Worth TRACON
09:10 32.9333 -96.9667 308° West 218 251 7,600 2,640 Climbing Dallas / Fort Worth TRACON
09:12 33.0792 -97.0367 338° Northwest 253 291 13,600 2,550 Climbing Fort Worth Center
09:13 33.1772 -97.0561 351° North 303 349 16,100 2,300 Climbing Fort Worth Center
09:14 33.2631 -97.0731 351° North 339 390 18,200 2,200 Climbing Fort Worth Center
09:15 33.3653 -97.0925 351° North 365 420 20,500 2,200 Climbing Fort Worth Center
09:16 33.4822 -97.1022 356° North 380 437 22,600 1,950 Climbing Fort Worth Center
09:17 33.6011 -97.0867 North 402 463 24,400 1,700 Climbing Fort Worth Center
09:18 33.7097 -97.0739 North 425 489 26,000 1,600 Climbing Fort Worth Center
09:19 33.8306 -97.0608 North 425 489 27,600 1,450 Climbing Fort Worth Center
09:20 33.9558 -97.0453 North 440 506 28,900 1,250 Climbing Fort Worth Center
09:21 34.0872 -97.0297 North 459 528 30,100 1,600 Climbing Fort Worth Center
09:22 34.2208 -97.0117 North 459 528 32,100 1,650 Climbing Fort Worth Center
09:23 34.3500 -96.9983 North 459 528 33,400 1,000 Climbing Fort Worth Center
09:24 34.4814 -96.9550 15° North 471 542 34,100 800 Climbing Fort Worth Center
09:25 34.6125 -96.8989 19° North 477 549 35,000 450 Climbing Fort Worth Center
09:26 34.7394 -96.8425 20° North 483 556 35,000  Level Fort Worth Center
09:27 34.8686 -96.7911 18° North 483 556 35,000  Level Fort Worth Center
09:28 34.9978 -96.7342 20° North 483 556 35,000  Level Fort Worth Center
09:29 35.1267 -96.6800 19° North 483 556 35,000  Level Fort Worth Center
09:30 35.2558 -96.6256 19° North 483 556 35,000  Level Fort Worth Center
09:32 35.4992 -96.5222 19° North 480 552 35,000  Level Kansas City Center
09:33 35.6247 -96.4683 19° North 480 552 35,000  Level Kansas City Center
09:34 35.7506 -96.4139 19° North 481 554 35,000  Level Kansas City Center
09:35 35.8789 -96.3600 19° North 481 554 35,000  Level Kansas City Center
09:36 36.0069 -96.3053 19° North 483 556 35,000  Level Kansas City Center
09:37 36.1344 -96.2514 19° North 482 555 35,000  Level Kansas City Center
09:38 36.2625 -96.1953 19° North 482 555 35,000  Level Kansas City Center
09:39 36.4144 -96.1286 19° North 479 551 35,000  Level Kansas City Center
09:40 36.5414 -96.0736 19° North 478 550 35,000  Level Kansas City Center
09:41 36.6664 -96.0192 19° North 474 545 35,000  Level Kansas City Center
09:42 36.7911 -95.9647 19° North 470 541 35,000  Level Kansas City Center
09:43 36.9153 -95.9100 19° North 469 540 35,000  Level Kansas City Center
09:44 37.0392 -95.8547 20° North 469 540 35,000  Level Kansas City Center
09:45 37.1636 -95.8000 19° North 469 540 35,000  Level Kansas City Center
09:46 37.2908 -95.7656 12° North 471 542 35,000  Level Kansas City Center
09:47 37.4194 -95.7342 11° North 468 539 35,000 -387 Level Kansas City Center
09:48 37.5461 -95.7067 10° North 462 532 34,200 -1,065 Descending Kansas City Center
09:49 37.6894 -95.6761 10° North 434 499 32,800 -1,694 Descending Kansas City Center
09:50 37.8036 -95.6475 11° North 420 483 30,700 -2,016 Descending Kansas City Center
09:52 37.9153 -95.6233 10° North 409 471 28,600 -1,525 Descending Kansas City Center
09:53 38.0178 -95.6050 North 404 465 27,600 -1,597 Descending Kansas City Center
09:54 38.1350 -95.5767 11° North 385 443 25,300 -1,984 Descending Kansas City Center
09:55 38.2319 -95.5550 10° North 372 428 23,500 -1,785 Descending Kansas City Center
09:56 38.3425 -95.5244 12° North 365 420 21,700 -1,728 Descending Kansas City Center
09:57 38.4372 -95.4822 19° North 374 430 19,900 -1,920 Descending Kansas City Center
09:58 38.5439 -95.4381 18° North 361 415 17,700 -1,951 Descending Kansas City Center
09:59 38.6311 -95.4019 18° North 347 399 15,900 -1,902 Descending Kansas City Center
10:00 38.7308 -95.3614 18° North 336 387 13,800 -1,854 Descending Kansas City Center
10:01 38.8111 -95.3281 18° North 321 369 12,100 -816 Descending Kansas City Center
10:02 38.8997 -95.2867 20° North 304 350 12,100  Level Kansas City Center
10:03 38.9575 -95.2072 47° Northeast 320 368 12,100 -48 Level Kansas City Center
10:04 39.0231 -95.1133 48° Northeast 318 366 12,000 -97 Descending Kansas City Center
10:05 39.0775 -95.0353 48° Northeast 310 357 11,900 -246 Descending Kansas City Center
10:06 39.1303 -94.9483 52° Northeast 284 327 11,500 -823 Descending Kansas City Center
10:07 39.1311 -94.8442 89° East 306 352 10,200 -1,440 Descending Kansas City Center
10:08 39.1486 -94.7342 78° East 282 325 8,500 -1,561 Descending Kansas City Center
10:09 39.1719 -94.6461 71° East 272 313 7,000 -738 Descending Kansas City Center
10:10 39.2072 -94.5756 57° Northeast 244 281 7,000 -672 Level Kansas City Center
10:11 39.2500 -94.5358 36° Northeast 164 189 5,600 -1,403 Descending Kansas City Center
10:12 39.2775 -94.5542 333° Northwest 145 167 4,100 -1,500 Descending Kansas City Center
10:13 39.2811 -94.6089 275° West 135 155 2,500 -1,200 Descending Kansas City Center
10:14 39.2850 -94.6547 276° West 134 154 1,600 -738 Descending Kansas City Center
10:15 39.2892 -94.7106 276° West 143 165 1,000 -590 Descending Kansas City Center

Login

Don't have an account? Register now (free) for customized features, flight alerts, and more!